Time,TemperatureF,DewpointF,PressureIn,WindDirection,WindDirectionDegrees,WindSpeedMPH,WindSpeedGustMPH,Humidity,HourlyPrecipIn,Conditions,Clouds,dailyrainin,SoftwareType,DateUTC
2013-01-11 00:04:00,34.9,34.4,28.79,SSW,202,6.9,6.9,98,0.00,,SCT,0.00,WeatherDisplay:10.37,2013-01-11 06:04:00,
2013-01-11 00:09:00,34.9,34.4,28.79,SSE,158,6.9,6.9,98,0.00,,SCT,0.00,WeatherDisplay:10.37,2013-01-11 06:09:00,
2013-01-11 00:14:00,34.9,34.4,28.79,South,180,6.9,6.9,98,0.00,,SCT,0.00,WeatherDisplay:10.37,2013-01-11 06:14:00,
2013-01-11 00:19:00,34.9,34.4,28.79,SSE,158,10.4,10.4,98,0.00,,SCT,0.00,WeatherDisplay:10.37,2013-01-11 06:19:00,
2013-01-11 00:24:00,34.9,34.4,28.79,SSE,158,5.8,5.8,98,0.00,,SCT,0.00,WeatherDisplay:10.37,2013-01-11 06:24:00,
2013-01-11 00:29:00,34.9,34.4,28.79,SSE,158,6.4,6.4,98,0.00,,SCT,0.00,WeatherDisplay:10.37,2013-01-11 06:29:00,
2013-01-11 00:34:00,34.9,34.4,28.79,SE,135,5.8,5.8,98,0.00,,SCT,0.00,WeatherDisplay:10.37,2013-01-11 06:34:00,
2013-01-11 00:39:00,34.9,34.4,28.76,SE,135,6.9,6.9,98,0.00,,SCT,0.00,WeatherDisplay:10.37,2013-01-11 06:39:00,
2013-01-11 00:44:00,35.1,34.6,28.76,SSE,158,8.1,8.1,98,0.00,,SCT,0.00,WeatherDisplay:10.37,2013-01-11 06:44:00,
2013-01-11 00:49:00,34.9,34.4,28.76,SSE,158,4.6,4.6,98,0.00,,SCT,0.00,WeatherDisplay:10.37,2013-01-11 06:49:00,
2013-01-11 00:54:00,35.1,34.6,28.76,SSE,158,5.8,5.8,98,0.00,,SCT,0.00,WeatherDisplay:10.37,2013-01-11 06:54:00,
2013-01-11 00:59:00,35.1,34.6,28.76,SSE,158,5.8,6.2,98,0.00,,SCT,0.00,WeatherDisplay:10.37,2013-01-11 06:59:00,
2013-01-11 01:04:00,35.1,34.6,28.76,SE,135,5.8,5.8,98,0.00,,SCT,0.00,WeatherDisplay:10.37,2013-01-11 07:04:00,
2013-01-11 01:09:00,35.1,34.6,28.76,SE,135,6.9,6.9,98,0.00,,SCT,0.00,WeatherDisplay:10.37,2013-01-11 07:09:00,
2013-01-11 01:14:00,35.1,34.6,28.76,SSE,158,4.6,4.6,98,0.00,,SCT,0.00,WeatherDisplay:10.37,2013-01-11 07:14:00,
2013-01-11 01:19:00,35.1,34.6,28.76,SSE,158,5.8,5.8,98,0.00,,SCT,0.00,WeatherDisplay:10.37,2013-01-11 07:19:00,
2013-01-11 01:24:00,35.1,34.6,28.76,SSE,158,6.9,6.9,98,0.00,,SCT,0.00,WeatherDisplay:10.37,2013-01-11 07:24:00,
2013-01-11 01:29:00,35.1,34.6,28.76,SSE,158,4.6,4.6,98,0.00,,SCT,0.00,WeatherDisplay:10.37,2013-01-11 07:29:00,
2013-01-11 01:34:00,35.1,34.6,28.76,SSW,202,4.6,4.6,98,0.00,,SCT,0.00,WeatherDisplay:10.37,2013-01-11 07:34:00,
2013-01-11 01:39:00,35.1,34.6,28.70,SSE,158,4.6,4.6,98,0.00,,SCT,0.00,WeatherDisplay:10.37,2013-01-11 07:39:00,
2013-01-11 01:44:00,35.1,34.6,28.70,South,180,4.6,4.6,98,0.00,,SCT,0.00,WeatherDisplay:10.37,2013-01-11 07:44:00,
2013-01-11 01:49:00,35.1,34.6,28.70,SSE,158,4.6,4.6,98,0.00,,SCT,0.00,WeatherDisplay:10.37,2013-01-11 07:49:00,
2013-01-11 01:54:00,35.1,34.6,28.73,SE,135,5.8,5.8,98,0.00,,SCT,0.00,WeatherDisplay:10.37,2013-01-11 07:54:00,
2013-01-11 01:59:00,35.1,34.6,28.73,SE,135,6.9,6.9,98,0.00,,SCT,0.00,WeatherDisplay:10.37,2013-01-11 07:59:00,
2013-01-11 02:04:00,35.1,34.6,28.73,SSE,158,5.8,5.8,98,0.00,,SCT,0.00,WeatherDisplay:10.37,2013-01-11 08:04:00,
2013-01-11 02:09:00,35.2,34.7,28.70,SE,135,5.8,5.8,98,0.00,,SCT,0.00,WeatherDisplay:10.37,2013-01-11 08:09:00,
2013-01-11 02:14:00,35.2,34.7,28.70,SSE,158,5.8,5.8,98,0.00,,SCT,0.00,WeatherDisplay:10.37,2013-01-11 08:14:00,
2013-01-11 02:19:00,35.2,34.7,28.70,SSE,158,5.8,5.8,98,0.00,,SCT,0.00,WeatherDisplay:10.37,2013-01-11 08:19:00,
2013-01-11 02:24:00,35.2,34.7,28.73,SSE,158,3.5,3.5,98,0.00,,SCT,0.00,WeatherDisplay:10.37,2013-01-11 08:24:00,
2013-01-11 02:29:00,35.2,34.7,28.73,SE,135,5.8,5.8,98,0.00,,SCT,0.00,WeatherDisplay:10.37,2013-01-11 08:29:00,
2013-01-11 02:34:00,35.2,34.7,28.73,SSE,158,6.9,6.9,98,0.00,,SCT,0.00,WeatherDisplay:10.37,2013-01-11 08:34:00,
2013-01-11 02:39:00,35.2,34.7,28.73,SSE,158,4.6,4.6,98,0.00,,SCT,0.00,WeatherDisplay:10.37,2013-01-11 08:39:00,
2013-01-11 02:44:00,35.2,34.7,28.73,SSE,158,5.8,5.8,98,0.00,,SCT,0.00,WeatherDisplay:10.37,2013-01-11 08:44:00,
2013-01-11 02:49:00,35.1,34.6,28.73,SE,135,3.5,3.5,98,0.00,,SCT,0.00,WeatherDisplay:10.37,2013-01-11 08:49:00,
2013-01-11 02:54:00,35.2,34.7,28.73,SE,135,6.9,6.9,98,0.00,,SCT,0.00,WeatherDisplay:10.37,2013-01-11 08:54:00,
2013-01-11 02:59:00,35.1,34.6,28.73,SSE,158,8.1,8.1,98,0.00,,SCT,0.00,WeatherDisplay:10.37,2013-01-11 08:59:00,
2013-01-11 03:04:00,35.1,34.6,28.73,SSE,158,6.9,6.9,98,0.00,,SCT,0.00,WeatherDisplay:10.37,2013-01-11 09:04:00,
2013-01-11 03:09:00,35.1,34.6,28.73,SE,135,7.6,7.6,98,0.00,,SCT,0.00,WeatherDisplay:10.37,2013-01-11 09:09:00,
2013-01-11 03:14:00,35.2,34.7,28.73,SE,135,8.1,8.1,98,0.00,,SCT,0.00,WeatherDisplay:10.37,2013-01-11 09:14:00,
2013-01-11 03:19:00,35.2,34.7,28.73,SSE,158,6.9,6.9,98,0.00,,SCT,0.00,WeatherDisplay:10.37,2013-01-11 09:19:00,
2013-01-11 03:24:00,35.1,34.6,28.70,SE,135,6.9,6.9,98,0.00,,SCT,0.00,WeatherDisplay:10.37,2013-01-11 09:24:00,
2013-01-11 03:29:00,35.1,34.6,28.70,SE,135,6.9,6.9,98,0.00,,SCT,0.00,WeatherDisplay:10.37,2013-01-11 09:29:00,
2013-01-11 03:34:00,35.1,34.6,28.70,SE,135,8.1,8.1,98,0.00,,SCT,0.00,WeatherDisplay:10.37,2013-01-11 09:34:00,
2013-01-11 03:39:00,35.1,34.6,28.67,South,180,6.9,6.9,98,0.00,,SCT,0.00,WeatherDisplay:10.37,2013-01-11 09:39:00,
2013-01-11 03:44:00,35.1,34.6,28.67,SSE,158,7.6,7.6,98,0.00,,SCT,0.00,WeatherDisplay:10.37,2013-01-11 09:44:00,
2013-01-11 03:49:00,35.1,34.6,28.67,SSE,158,6.9,6.9,98,0.00,,SCT,0.00,WeatherDisplay:10.37,2013-01-11 09:49:00,
2013-01-11 03:54:00,35.1,34.6,28.67,SSE,158,9.2,9.2,98,0.00,,SCT,0.00,WeatherDisplay:10.37,2013-01-11 09:54:00,
2013-01-11 03:59:00,34.9,34.4,28.67,SSE,158,6.2,6.2,98,0.00,,SCT,0.00,WeatherDisplay:10.37,2013-01-11 09:59:00,
2013-01-11 04:04:00,34.9,34.4,28.67,SSE,158,6.9,6.9,98,0.00,,SCT,0.00,WeatherDisplay:10.37,2013-01-11 10:04:00,
2013-01-11 04:09:00,34.9,34.4,28.67,SSE,158,8.1,8.1,98,0.00,,SCT,0.00,WeatherDisplay:10.37,2013-01-11 10:09:00,
2013-01-11 04:14:00,34.9,34.4,28.67,SE,135,6.9,6.9,98,0.00,,SCT,0.00,WeatherDisplay:10.37,2013-01-11 10:14:00,
2013-01-11 04:19:00,34.9,34.4,28.67,SSE,158,8.1,8.1,98,0.00,,SCT,0.00,WeatherDisplay:10.37,2013-01-11 10:19:00,
2013-01-11 04:24:00,35.1,34.6,28.67,SSW,202,6.9,6.9,98,0.00,,SCT,0.00,WeatherDisplay:10.37,2013-01-11 10:24:00,
2013-01-11 04:29:00,35.1,34.6,28.67,SSE,158,8.1,8.1,98,0.00,,SCT,0.00,WeatherDisplay:10.37,2013-01-11 10:29:00,
2013-01-11 04:34:00,35.1,34.6,28.67,SSE,159,3.0,0.0,98,0.00,,SCT,0.00,WeatherDisplay:10.37,2013-01-11 10:34:00,
2013-01-11 04:39:00,35.1,34.6,28.70,SSE,158,4.6,4.6,98,0.00,,SCT,0.00,WeatherDisplay:10.37,2013-01-11 10:39:00,
2013-01-11 04:44:00,35.2,34.7,28.70,SSE,158,6.0,6.0,98,0.00,,SCT,0.00,WeatherDisplay:10.37,2013-01-11 10:44:00,
2013-01-11 04:49:00,35.2,34.7,28.70,SSE,157,3.0,0.0,98,0.00,,SCT,0.00,WeatherDisplay:10.37,2013-01-11 10:49:00,
2013-01-11 04:54:00,35.2,34.7,28.67,ESE,112,4.6,4.7,98,0.00,,SCT,0.00,WeatherDisplay:10.37,2013-01-11 10:54:00,
2013-01-11 04:59:00,35.2,34.7,28.67,SSE,158,5.8,5.8,98,0.00,,SCT,0.00,WeatherDisplay:10.37,2013-01-11 10:59:00,
2013-01-11 05:04:00,35.2,34.7,28.67,SSE,158,6.9,6.9,98,0.00,,SCT,0.00,WeatherDisplay:10.37,2013-01-11 11:04:00,
2013-01-11 05:09:00,35.2,34.7,28.64,South,180,4.6,4.6,98,0.00,,SCT,0.00,WeatherDisplay:10.37,2013-01-11 11:09:00,
2013-01-11 05:14:00,35.2,34.7,28.64,South,180,2.4,3.1,98,0.00,,SCT,0.00,WeatherDisplay:10.37,2013-01-11 11:14:00,
2013-01-11 05:19:00,35.2,34.7,28.64,SE,135,4.6,4.6,98,0.00,,SCT,0.00,WeatherDisplay:10.37,2013-01-11 11:19:00,
2013-01-11 05:25:00,35.2,34.7,28.64,SSE,158,5.8,5.8,98,0.00,,SCT,0.00,WeatherDisplay:10.37,2013-01-11 11:25:00,
2013-01-11 05:30:00,35.2,34.7,28.64,SSW,202,5.8,5.8,98,0.00,,SCT,0.00,WeatherDisplay:10.37,2013-01-11 11:30:00,
2013-01-11 05:35:00,35.2,34.7,28.64,South,180,3.5,3.5,98,0.00,,SCT,0.00,WeatherDisplay:10.37,2013-01-11 11:35:00,
2013-01-11 05:40:00,35.1,34.6,28.64,SSW,202,4.9,4.9,98,0.00,,SCT,0.00,WeatherDisplay:10.37,2013-01-11 11:40:00,
2013-01-11 05:45:00,35.1,34.6,28.64,South,180,4.6,4.6,98,0.00,,SCT,0.00,WeatherDisplay:10.37,2013-01-11 11:45:00,
2013-01-11 05:50:00,35.1,34.6,28.64,South,180,5.8,5.8,98,0.00,,SCT,0.00,WeatherDisplay:10.37,2013-01-11 11:50:00,
2013-01-11 05:55:00,35.1,34.6,28.64,South,180,3.5,3.5,98,0.00,,SCT,0.00,WeatherDisplay:10.37,2013-01-11 11:55:00,
2013-01-11 06:00:00,35.1,34.6,28.64,SSE,158,3.5,3.5,98,0.00,,SCT,0.00,WeatherDisplay:10.37,2013-01-11 12:00:00,
2013-01-11 06:05:00,35.1,34.6,28.64,SSE,158,4.6,4.6,98,0.00,,SCT,0.00,WeatherDisplay:10.37,2013-01-11 12:05:00,
2013-01-11 06:10:00,35.1,34.6,28.64,SE,135,4.6,4.6,98,0.00,,SCT,0.00,WeatherDisplay:10.37,2013-01-11 12:10:00,
2013-01-11 06:15:00,35.1,34.6,28.64,South,180,3.5,3.5,98,0.00,,SCT,0.00,WeatherDisplay:10.37,2013-01-11 12:15:00,
2013-01-11 06:20:00,35.1,34.6,28.64,SSE,158,6.2,6.2,98,0.00,,SCT,0.00,WeatherDisplay:10.37,2013-01-11 12:20:00,
2013-01-11 06:25:00,35.1,34.6,28.64,South,180,3.5,3.5,98,0.00,,SCT,0.00,WeatherDisplay:10.37,2013-01-11 12:25:00,
2013-01-11 06:30:00,35.1,34.6,28.64,SSE,158,3.5,3.5,98,0.00,,SCT,0.00,WeatherDisplay:10.37,2013-01-11 12:30:00,
2013-01-11 06:35:00,35.1,34.6,28.64,South,180,4.9,4.9,98,0.00,,SCT,0.00,WeatherDisplay:10.37,2013-01-11 12:35:00,
2013-01-11 06:40:00,35.1,34.6,28.64,SSE,158,3.5,3.5,98,0.00,,SCT,0.00,WeatherDisplay:10.37,2013-01-11 12:40:00,
2013-01-11 06:45:00,35.2,34.7,28.64,South,180,4.6,4.6,98,0.00,,SCT,0.00,WeatherDisplay:10.37,2013-01-11 12:45:00,
2013-01-11 06:50:00,35.2,34.7,28.64,SE,135,4.6,4.6,98,0.00,,SCT,0.00,WeatherDisplay:10.37,2013-01-11 12:50:00,
2013-01-11 06:55:00,35.2,34.7,28.64,SSE,158,4.6,4.6,98,0.00,,SCT,0.00,WeatherDisplay:10.37,2013-01-11 12:55:00,
2013-01-11 07:00:00,35.2,34.7,28.64,SSE,158,4.9,4.9,98,0.00,,SCT,0.00,WeatherDisplay:10.37,2013-01-11 13:00:00,
2013-01-11 07:05:00,35.2,34.7,28.61,South,180,4.3,4.3,98,0.00,,SCT,0.00,WeatherDisplay:10.37,2013-01-11 13:05:00,
2013-01-11 07:10:00,35.2,34.7,28.61,SSE,158,5.9,5.9,98,0.00,,SCT,0.00,WeatherDisplay:10.37,2013-01-11 13:10:00,
2013-01-11 07:15:00,35.2,34.7,28.61,SSE,158,6.9,6.9,98,0.00,,SCT,0.00,WeatherDisplay:10.37,2013-01-11 13:15:00,
2013-01-11 07:20:00,35.2,34.7,28.61,SSE,158,5.8,5.8,98,0.00,,SCT,0.00,WeatherDisplay:10.37,2013-01-11 13:20:00,
2013-01-11 07:25:00,35.4,34.9,28.61,SE,135,4.6,4.6,98,0.00,,SCT,0.00,WeatherDisplay:10.37,2013-01-11 13:25:00,
2013-01-11 07:30:00,35.4,34.9,28.61,SSE,158,4.6,4.6,98,0.00,,SCT,0.00,WeatherDisplay:10.37,2013-01-11 13:30:00,
2013-01-11 07:35:00,35.4,34.9,28.61,SSW,202,3.5,3.5,98,0.00,,SCT,0.00,WeatherDisplay:10.37,2013-01-11 13:35:00,
2013-01-11 07:40:00,35.4,34.9,28.61,SE,135,3.5,3.5,98,0.00,,SCT,0.00,WeatherDisplay:10.37,2013-01-11 13:40:00,
2013-01-11 07:45:00,35.4,34.9,28.61,SSE,158,3.5,3.5,98,0.00,,SCT,0.00,WeatherDisplay:10.37,2013-01-11 13:45:00,
2013-01-11 07:50:00,35.6,35.1,28.61,SSE,158,5.8,5.8,98,0.00,,SCT,0.00,WeatherDisplay:10.37,2013-01-11 13:50:00,
2013-01-11 07:55:00,35.6,35.1,28.61,South,180,5.8,5.8,98,0.00,,SCT,0.00,WeatherDisplay:10.37,2013-01-11 13:55:00,
2013-01-11 08:00:00,35.6,35.1,28.61,SE,135,5.8,5.8,98,0.00,,SCT,0.00,WeatherDisplay:10.37,2013-01-11 14:00:00,
2013-01-11 08:05:00,35.8,35.3,28.61,SSE,158,4.6,4.6,98,0.00,,SCT,0.00,WeatherDisplay:10.37,2013-01-11 14:05:00,
2013-01-11 08:10:00,35.8,35.3,28.61,SE,135,5.8,5.8,98,0.00,,SCT,0.00,WeatherDisplay:10.37,2013-01-11 14:10:00,
2013-01-11 08:15:00,36.0,35.5,28.61,South,180,5.8,5.8,98,0.00,,SCT,0.00,WeatherDisplay:10.37,2013-01-11 14:15:00,
2013-01-11 08:20:00,36.0,35.5,28.58,South,180,4.6,4.6,98,0.00,,SCT,0.00,WeatherDisplay:10.37,2013-01-11 14:20:00,
2013-01-11 08:26:00,36.1,35.6,28.58,SSE,158,4.6,4.6,98,0.00,,SCT,0.00,WeatherDisplay:10.37,2013-01-11 14:26:00,
2013-01-11 08:31:00,36.3,35.8,28.58,SSW,202,3.5,3.5,98,0.00,,SCT,0.00,WeatherDisplay:10.37,2013-01-11 14:31:00,
2013-01-11 08:36:00,36.3,35.8,28.61,South,180,3.6,3.6,98,0.00,,SCT,0.00,WeatherDisplay:10.37,2013-01-11 14:36:00,
2013-01-11 08:41:00,36.5,36.0,28.61,SE,135,3.5,3.5,98,0.00,,SCT,0.00,WeatherDisplay:10.37,2013-01-11 14:41:00,
2013-01-11 08:46:00,36.9,36.3,28.61,SSW,202,3.1,3.1,98,0.00,,SCT,0.00,WeatherDisplay:10.37,2013-01-11 14:46:00,
2013-01-11 08:51:00,36.9,36.3,28.61,SSE,158,4.6,4.6,98,0.00,,SCT,0.00,WeatherDisplay:10.37,2013-01-11 14:51:00,
2013-01-11 08:56:00,37.2,36.7,28.61,SSE,158,5.8,5.8,98,0.00,,SCT,0.00,WeatherDisplay:10.37,2013-01-11 14:56:00,
2013-01-11 09:01:00,37.4,36.9,28.61,SSE,158,5.8,5.8,98,0.00,,SCT,0.00,WeatherDisplay:10.37,2013-01-11 15:01:00,
2013-01-11 09:06:00,37.4,36.9,28.61,ESE,112,4.9,4.9,98,0.00,,SCT,0.00,WeatherDisplay:10.37,2013-01-11 15:06:00,
2013-01-11 09:11:00,37.4,36.9,28.61,SSW,202,5.8,5.8,98,0.00,,SCT,0.00,WeatherDisplay:10.37,2013-01-11 15:11:00,
2013-01-11 09:16:00,37.4,36.9,28.61,SE,135,9.2,9.2,98,0.00,,SCT,0.00,WeatherDisplay:10.37,2013-01-11 15:16:00,
2013-01-11 09:21:00,37.6,37.1,28.61,SE,135,4.9,4.9,98,0.00,,SCT,0.00,WeatherDisplay:10.37,2013-01-11 15:21:00,
2013-01-11 09:26:00,37.9,37.4,28.61,SSW,202,7.1,7.1,98,0.00,,SCT,0.00,WeatherDisplay:10.37,2013-01-11 15:26:00,
2013-01-11 09:31:00,37.9,37.4,28.61,South,180,6.9,6.9,98,0.00,,SCT,0.00,WeatherDisplay:10.37,2013-01-11 15:31:00,
2013-01-11 09:36:00,37.9,37.4,28.61,South,180,6.9,6.9,98,0.00,,SCT,0.00,WeatherDisplay:10.37,2013-01-11 15:36:00,
2013-01-11 09:41:00,37.9,37.4,28.61,SSE,158,5.8,5.8,98,0.00,,SCT,0.00,WeatherDisplay:10.37,2013-01-11 15:41:00,
2013-01-11 09:46:00,37.9,37.4,28.61,SSE,158,5.8,5.8,98,0.00,,SCT,0.00,WeatherDisplay:10.37,2013-01-11 15:46:00,
2013-01-11 09:51:00,38.1,37.6,28.61,SSE,158,8.1,8.1,98,0.00,,SCT,0.00,WeatherDisplay:10.37,2013-01-11 15:51:00,
2013-01-11 09:56:00,38.3,37.8,28.61,SSE,158,4.9,4.9,98,0.00,,SCT,0.00,WeatherDisplay:10.37,2013-01-11 15:56:00,
2013-01-11 10:01:00,38.5,38.0,28.61,SSW,202,5.8,5.8,98,0.00,,SCT,0.00,WeatherDisplay:10.37,2013-01-11 16:01:00,
2013-01-11 10:06:00,38.5,38.0,28.61,SSE,158,4.6,4.6,98,0.00,,SCT,0.00,WeatherDisplay:10.37,2013-01-11 16:06:00,
2013-01-11 10:11:00,38.8,38.3,28.61,SSW,202,3.5,3.5,98,0.00,,SCT,0.00,WeatherDisplay:10.37,2013-01-11 16:11:00,
2013-01-11 10:16:00,39.0,38.5,28.61,SSW,202,4.6,4.6,98,0.00,,SCT,0.00,WeatherDisplay:10.37,2013-01-11 16:16:00,
2013-01-11 10:21:00,38.7,38.1,28.61,South,180,8.1,8.1,98,0.00,,SCT,0.00,WeatherDisplay:10.37,2013-01-11 16:21:00,
2013-01-11 10:26:00,38.5,38.0,28.61,South,180,4.6,4.6,98,0.00,,SCT,0.00,WeatherDisplay:10.37,2013-01-11 16:26:00,
2013-01-11 10:31:00,38.5,38.0,28.61,SSE,158,2.4,2.4,98,0.00,,SCT,0.00,WeatherDisplay:10.37,2013-01-11 16:31:00,
2013-01-11 10:36:00,38.3,37.8,28.61,SSE,158,5.8,5.8,98,0.00,,SCT,0.00,WeatherDisplay:10.37,2013-01-11 16:36:00,
2013-01-11 10:41:00,38.3,37.8,28.61,SSW,202,4.6,4.6,98,0.00,,SCT,0.00,WeatherDisplay:10.37,2013-01-11 16:41:00,
2013-01-11 10:46:00,38.3,37.8,28.61,WSW,248,5.8,5.8,98,0.00,,SCT,0.00,WeatherDisplay:10.37,2013-01-11 16:46:00,
2013-01-11 10:51:00,38.1,37.6,28.61,SE,135,5.8,5.8,98,0.00,,SCT,0.00,WeatherDisplay:10.37,2013-01-11 16:51:00,
2013-01-11 10:56:00,37.9,37.4,28.61,SSE,158,5.6,5.6,98,0.00,,SCT,0.00,WeatherDisplay:10.37,2013-01-11 16:56:00,
2013-01-11 11:01:00,38.1,37.6,28.61,SE,135,4.6,4.6,98,0.00,,SCT,0.00,WeatherDisplay:10.37,2013-01-11 17:01:00,
2013-01-11 11:06:00,38.1,37.6,28.58,SSE,158,6.9,6.9,98,0.00,,SCT,0.00,WeatherDisplay:10.37,2013-01-11 17:06:00,
2013-01-11 11:11:00,37.9,37.4,28.58,SSW,202,5.8,5.8,98,0.00,,SCT,0.00,WeatherDisplay:10.37,2013-01-11 17:11:00,
2013-01-11 11:16:00,38.1,37.6,28.58,South,180,5.8,5.8,98,0.00,,SCT,0.00,WeatherDisplay:10.37,2013-01-11 17:16:00,
2013-01-11 11:21:00,38.1,37.6,28.61,SSW,202,6.4,6.4,98,0.00,,SCT,0.00,WeatherDisplay:10.37,2013-01-11 17:21:00,
2013-01-11 11:26:00,38.1,37.6,28.61,SSE,158,8.1,8.1,98,0.00,,SCT,0.00,WeatherDisplay:10.37,2013-01-11 17:26:00,
2013-01-11 11:31:00,38.1,37.6,28.61,SSW,202,6.9,6.9,98,0.00,,SCT,0.00,WeatherDisplay:10.37,2013-01-11 17:31:00,
2013-01-11 11:36:00,38.1,37.6,28.58,SSE,158,8.1,8.1,98,0.00,,SCT,0.00,WeatherDisplay:10.37,2013-01-11 17:36:00,
2013-01-11 11:41:00,38.1,37.6,28.58,SSE,158,5.8,5.8,98,0.00,,SCT,0.00,WeatherDisplay:10.37,2013-01-11 17:41:00,
2013-01-11 11:46:00,38.1,37.6,28.58,SSW,202,8.1,8.1,98,0.00,,SCT,0.00,WeatherDisplay:10.37,2013-01-11 17:46:00,
2013-01-11 11:51:00,38.3,37.8,28.58,SE,135,7.6,7.6,98,0.00,,SCT,0.00,WeatherDisplay:10.37,2013-01-11 17:51:00,
2013-01-11 11:56:00,38.3,37.8,28.58,South,180,11.5,11.5,98,0.00,,SCT,0.00,WeatherDisplay:10.37,2013-01-11 17:56:00,
2013-01-11 12:01:00,38.1,37.6,28.58,SSE,158,6.0,6.0,98,0.00,,SCT,0.00,WeatherDisplay:10.37,2013-01-11 18:01:00,
2013-01-11 12:06:00,38.3,37.8,28.56,South,180,8.1,8.1,98,0.00,,SCT,0.00,WeatherDisplay:10.37,2013-01-11 18:06:00,
2013-01-11 12:11:00,38.3,37.8,28.56,SSE,158,9.2,9.2,98,0.00,,SCT,0.00,WeatherDisplay:10.37,2013-01-11 18:11:00,
2013-01-11 12:16:00,38.5,38.0,28.56,SSE,158,10.4,10.4,98,0.00,,SCT,0.00,WeatherDisplay:10.37,2013-01-11 18:16:00,
2013-01-11 12:21:00,38.5,38.0,28.56,SSW,202,8.1,8.1,98,0.00,,SCT,0.00,WeatherDisplay:10.37,2013-01-11 18:21:00,
2013-01-11 12:26:00,38.3,37.8,28.56,SSE,158,9.2,9.2,98,0.00,,SCT,0.00,WeatherDisplay:10.37,2013-01-11 18:26:00,
2013-01-11 12:31:00,38.3,37.8,28.56,SSE,158,9.2,9.2,98,0.00,,SCT,0.00,WeatherDisplay:10.37,2013-01-11 18:31:00,
2013-01-11 12:36:00,38.3,37.8,28.56,South,180,10.4,10.4,98,0.00,,SCT,0.00,WeatherDisplay:10.37,2013-01-11 18:36:00,
2013-01-11 12:41:00,38.3,37.8,28.56,SSE,158,10.4,10.4,98,0.00,,SCT,0.00,WeatherDisplay:10.37,2013-01-11 18:41:00,
2013-01-11 12:46:00,38.3,37.8,28.56,South,180,8.1,8.1,98,0.00,,SCT,0.00,WeatherDisplay:10.37,2013-01-11 18:46:00,
2013-01-11 12:51:00,38.3,37.8,28.56,SSW,202,11.5,11.5,98,0.00,,SCT,0.00,WeatherDisplay:10.37,2013-01-11 18:51:00,
2013-01-11 12:56:00,38.5,38.0,28.56,ESE,112,5.8,5.8,98,0.00,,SCT,0.00,WeatherDisplay:10.37,2013-01-11 18:56:00,
2013-01-11 13:01:00,38.5,38.0,28.56,SSE,158,5.8,5.8,98,0.00,,SCT,0.00,WeatherDisplay:10.37,2013-01-11 19:01:00,
2013-01-11 13:06:00,38.5,38.0,28.56,SSE,158,6.9,6.9,98,0.00,,SCT,0.00,WeatherDisplay:10.37,2013-01-11 19:06:00,
2013-01-11 13:11:00,38.3,37.8,28.56,South,180,3.5,3.8,98,0.00,,SCT,0.00,WeatherDisplay:10.37,2013-01-11 19:11:00,
2013-01-11 13:16:00,38.3,37.8,28.56,SSE,158,6.9,6.9,98,0.00,,SCT,0.00,WeatherDisplay:10.37,2013-01-11 19:16:00,
2013-01-11 13:21:00,38.3,37.8,28.56,SSE,158,8.1,8.1,98,0.00,,SCT,0.00,WeatherDisplay:10.37,2013-01-11 19:21:00,
2013-01-11 13:26:00,38.3,37.8,28.56,SE,135,5.8,5.8,98,0.00,,SCT,0.00,WeatherDisplay:10.37,2013-01-11 19:26:00,
2013-01-11 13:31:00,38.3,37.8,28.56,South,180,6.2,6.2,98,0.00,,SCT,0.00,WeatherDisplay:10.37,2013-01-11 19:31:00,
2013-01-11 13:36:00,38.3,37.8,28.56,SSE,158,6.9,6.9,98,0.00,,SCT,0.00,WeatherDisplay:10.37,2013-01-11 19:36:00,
2013-01-11 13:41:00,38.3,37.8,28.56,South,180,6.0,6.0,98,0.00,,SCT,0.00,WeatherDisplay:10.37,2013-01-11 19:41:00,
2013-01-11 13:46:00,38.1,37.6,28.56,South,180,6.9,6.9,98,0.00,,SCT,0.00,WeatherDisplay:10.37,2013-01-11 19:46:00,
2013-01-11 13:52:00,38.1,37.6,28.56,SE,135,6.9,6.9,98,0.00,,SCT,0.00,WeatherDisplay:10.37,2013-01-11 19:52:00,
2013-01-11 13:57:00,38.1,37.6,28.56,SSW,202,3.5,3.5,98,0.00,,SCT,0.00,WeatherDisplay:10.37,2013-01-11 19:57:00,
2013-01-11 14:02:00,38.1,37.6,28.56,SSW,202,4.6,4.6,98,0.00,,SCT,0.00,WeatherDisplay:10.37,2013-01-11 20:02:00,
2013-01-11 14:07:00,38.1,37.6,28.53,SE,135,5.4,5.4,98,0.00,,SCT,0.00,WeatherDisplay:10.37,2013-01-11 20:07:00,
2013-01-11 14:12:00,37.9,37.4,28.53,SSE,158,5.8,5.8,98,0.00,,SCT,0.00,WeatherDisplay:10.37,2013-01-11 20:12:00,
2013-01-11 14:17:00,37.9,37.4,28.53,SSE,158,5.8,5.8,98,0.00,,SCT,0.00,WeatherDisplay:10.37,2013-01-11 20:17:00,
2013-01-11 14:22:00,37.9,37.4,28.56,SSW,202,6.0,6.0,98,0.00,,SCT,0.00,WeatherDisplay:10.37,2013-01-11 20:22:00,
2013-01-11 14:27:00,37.9,37.4,28.56,South,180,3.5,3.6,98,0.00,,SCT,0.00,WeatherDisplay:10.37,2013-01-11 20:27:00,
2013-01-11 14:32:00,37.9,37.4,28.56,SSE,158,6.9,6.9,98,0.00,,SCT,0.00,WeatherDisplay:10.37,2013-01-11 20:32:00,
2013-01-11 14:37:00,38.1,37.6,28.56,SSW,202,5.9,5.9,98,0.00,,SCT,0.00,WeatherDisplay:10.37,2013-01-11 20:37:00,
2013-01-11 14:42:00,37.9,37.4,28.56,ESE,112,5.4,5.4,98,0.00,,SCT,0.00,WeatherDisplay:10.37,2013-01-11 20:42:00,
2013-01-11 14:47:00,38.1,37.6,28.56,SSE,158,8.1,8.1,98,0.00,,SCT,0.00,WeatherDisplay:10.37,2013-01-11 20:47:00,
2013-01-11 14:52:00,37.9,37.4,28.53,SSE,158,4.9,4.9,98,0.00,,SCT,0.00,WeatherDisplay:10.37,2013-01-11 20:52:00,
2013-01-11 14:57:00,37.9,37.4,28.53,SSE,158,2.3,2.4,98,0.00,,SCT,0.00,WeatherDisplay:10.37,2013-01-11 20:57:00,
2013-01-11 15:02:00,38.1,37.6,28.53,ESE,112,4.6,4.6,98,0.00,,SCT,0.00,WeatherDisplay:10.37,2013-01-11 21:02:00,
2013-01-11 15:07:00,37.9,37.4,28.53,SE,135,4.6,4.6,98,0.00,,SCT,0.00,WeatherDisplay:10.37,2013-01-11 21:07:00,
2013-01-11 15:12:00,38.1,37.6,28.53,SSE,158,5.4,5.4,98,0.00,,SCT,0.00,WeatherDisplay:10.37,2013-01-11 21:12:00,
2013-01-11 15:17:00,37.9,37.4,28.53,ESE,112,5.8,5.9,98,0.00,,SCT,0.00,WeatherDisplay:10.37,2013-01-11 21:17:00,
2013-01-11 15:22:00,37.8,37.2,28.53,SSE,158,8.1,8.1,98,0.00,,SCT,0.00,WeatherDisplay:10.37,2013-01-11 21:22:00,
2013-01-11 15:27:00,37.6,37.1,28.53,ESE,112,5.8,5.8,98,0.00,,SCT,0.00,WeatherDisplay:10.37,2013-01-11 21:27:00,
2013-01-11 15:32:00,37.6,37.1,28.53,SE,135,5.8,5.8,98,0.00,,SCT,0.00,WeatherDisplay:10.37,2013-01-11 21:32:00,
2013-01-11 15:37:00,37.6,37.1,28.50,SSE,158,5.8,5.8,98,0.00,,SCT,0.00,WeatherDisplay:10.37,2013-01-11 21:37:00,
2013-01-11 15:42:00,37.6,37.1,28.50,SSE,158,4.6,4.6,98,0.00,,SCT,0.00,WeatherDisplay:10.37,2013-01-11 21:42:00,
2013-01-11 15:47:00,37.6,37.1,28.50,SE,135,6.9,6.9,98,0.00,,SCT,0.00,WeatherDisplay:10.37,2013-01-11 21:47:00,
2013-01-11 15:52:00,37.6,37.1,28.50,SSE,158,8.1,8.1,98,0.00,,SCT,0.00,WeatherDisplay:10.37,2013-01-11 21:52:00,
2013-01-11 15:57:00,37.6,37.1,28.50,SSW,202,10.4,10.4,98,0.00,,SCT,0.00,WeatherDisplay:10.37,2013-01-11 21:57:00,
2013-01-11 16:02:00,37.6,37.1,28.50,SE,135,5.9,5.9,98,0.00,,SCT,0.00,WeatherDisplay:10.37,2013-01-11 22:02:00,
2013-01-11 16:07:00,37.8,37.2,28.50,SE,135,9.8,9.8,98,0.00,,SCT,0.00,WeatherDisplay:10.37,2013-01-11 22:07:00,
2013-01-11 16:12:00,37.8,37.2,28.50,SE,135,8.1,8.1,98,0.00,,SCT,0.00,WeatherDisplay:10.37,2013-01-11 22:12:00,
2013-01-11 16:17:00,37.8,37.2,28.50,SSE,158,12.5,12.5,98,0.00,,SCT,0.00,WeatherDisplay:10.37,2013-01-11 22:17:00,
2013-01-11 16:22:00,37.8,37.2,28.50,SSE,158,10.2,10.2,98,0.00,,SCT,0.00,WeatherDisplay:10.37,2013-01-11 22:22:00,
2013-01-11 16:27:00,37.8,37.2,28.50,South,180,6.0,6.0,98,0.00,,SCT,0.00,WeatherDisplay:10.37,2013-01-11 22:27:00,
2013-01-11 16:32:00,37.8,37.2,28.50,ESE,112,8.1,8.1,98,0.00,,SCT,0.00,WeatherDisplay:10.37,2013-01-11 22:32:00,
2013-01-11 16:37:00,37.9,37.4,28.50,SE,135,9.2,9.2,98,0.00,,SCT,0.00,WeatherDisplay:10.37,2013-01-11 22:37:00,
2013-01-11 16:42:00,37.8,37.2,28.50,ESE,112,9.2,9.2,98,0.00,,SCT,0.00,WeatherDisplay:10.37,2013-01-11 22:42:00,
2013-01-11 16:47:00,37.9,37.4,28.50,SSE,158,9.2,9.2,98,0.00,,SCT,0.00,WeatherDisplay:10.37,2013-01-11 22:47:00,
2013-01-11 16:52:00,38.1,37.6,28.50,SSE,158,12.7,12.7,98,0.00,,SCT,0.00,WeatherDisplay:10.37,2013-01-11 22:52:00,
2013-01-11 16:57:00,38.1,37.6,28.50,SSE,158,10.9,10.9,98,0.00,,SCT,0.00,WeatherDisplay:10.37,2013-01-11 22:57:00,
2013-01-11 17:02:00,38.1,37.6,28.50,SSE,158,8.1,8.1,98,0.00,,SCT,0.00,WeatherDisplay:10.37,2013-01-11 23:02:00,
2013-01-11 17:07:00,38.1,37.6,28.50,SSE,158,9.8,9.8,98,0.00,,SCT,0.00,WeatherDisplay:10.37,2013-01-11 23:07:00,
2013-01-11 17:13:00,38.1,37.6,28.50,SSE,158,8.1,8.1,98,0.00,,SCT,0.00,WeatherDisplay:10.37,2013-01-11 23:13:00,
2013-01-11 17:18:00,38.1,37.6,28.50,South,180,8.1,8.1,98,0.00,,SCT,0.00,WeatherDisplay:10.37,2013-01-11 23:18:00,
2013-01-11 17:23:00,38.1,37.6,28.50,SE,135,6.9,6.9,98,0.00,,SCT,0.00,WeatherDisplay:10.37,2013-01-11 23:23:00,
2013-01-11 17:28:00,38.3,37.8,28.50,SE,135,6.9,6.9,98,0.00,,SCT,0.00,WeatherDisplay:10.37,2013-01-11 23:28:00,
2013-01-11 17:33:00,38.5,38.0,28.50,SSE,158,9.2,9.2,98,0.00,,SCT,0.00,WeatherDisplay:10.37,2013-01-11 23:33:00,
2013-01-11 17:38:00,38.5,38.0,28.50,SSE,158,8.1,8.1,98,0.00,,SCT,0.00,WeatherDisplay:10.37,2013-01-11 23:38:00,
2013-01-11 17:43:00,38.5,38.0,28.50,ENE,68,5.8,5.8,98,0.00,,SCT,0.00,WeatherDisplay:10.37,2013-01-11 23:43:00,
2013-01-11 17:48:00,38.7,38.1,28.50,SSE,158,5.8,7.1,98,0.00,,SCT,0.00,WeatherDisplay:10.37,2013-01-11 23:48:00,
2013-01-11 17:53:00,38.7,38.1,28.50,SE,135,9.2,9.2,98,0.00,,SCT,0.00,WeatherDisplay:10.37,2013-01-11 23:53:00,
2013-01-11 17:58:00,38.8,38.3,28.50,SSE,158,12.7,12.7,98,0.00,,SCT,0.00,WeatherDisplay:10.37,2013-01-11 23:58:00,
2013-01-11 18:03:00,39.0,38.5,28.50,SSE,158,8.1,8.1,98,0.00,,SCT,0.00,WeatherDisplay:10.37,2013-01-12 00:03:00,
2013-01-11 18:08:00,39.0,38.5,28.50,SSE,158,9.2,9.2,98,0.00,,SCT,0.00,WeatherDisplay:10.37,2013-01-12 00:08:00,
2013-01-11 18:13:00,39.2,38.7,28.50,SSW,202,6.9,6.9,98,0.00,,SCT,0.00,WeatherDisplay:10.37,2013-01-12 00:13:00,
2013-01-11 18:18:00,39.2,38.7,28.50,ESE,112,6.2,6.9,98,0.00,,SCT,0.00,WeatherDisplay:10.37,2013-01-12 00:18:00,
2013-01-11 18:23:00,39.4,38.9,28.47,ESE,112,6.2,6.9,98,0.00,,SCT,0.00,WeatherDisplay:10.37,2013-01-12 00:23:00,
2013-01-11 18:28:00,39.4,38.9,28.47,SE,135,10.4,10.4,98,0.00,,SCT,0.00,WeatherDisplay:10.37,2013-01-12 00:28:00,
2013-01-11 18:33:00,39.6,39.0,28.47,SE,135,6.9,6.9,98,0.00,,SCT,0.00,WeatherDisplay:10.37,2013-01-12 00:33:00,
2013-01-11 18:38:00,39.7,39.2,28.47,SSE,158,8.7,8.7,98,0.00,,SCT,0.00,WeatherDisplay:10.37,2013-01-12 00:38:00,
2013-01-11 18:43:00,39.7,39.2,28.47,SSE,158,6.9,6.9,98,0.00,,SCT,0.00,WeatherDisplay:10.37,2013-01-12 00:43:00,
2013-01-11 18:48:00,39.7,39.2,28.47,SSE,158,8.1,8.1,98,0.00,,SCT,0.00,WeatherDisplay:10.37,2013-01-12 00:48:00,
2013-01-11 18:53:00,39.7,39.2,28.44,SE,135,10.4,10.4,98,0.00,,SCT,0.00,WeatherDisplay:10.37,2013-01-12 00:53:00,
2013-01-11 18:58:00,39.9,39.4,28.44,South,180,8.1,8.1,98,0.00,,SCT,0.00,WeatherDisplay:10.37,2013-01-12 00:58:00,
2013-01-11 19:03:00,39.9,39.4,28.44,SSE,158,6.0,6.0,98,0.00,,SCT,0.00,WeatherDisplay:10.37,2013-01-12 01:03:00,
2013-01-11 19:08:00,39.9,39.4,28.47,SSE,158,5.8,5.8,98,0.00,,SCT,0.00,WeatherDisplay:10.37,2013-01-12 01:08:00,
2013-01-11 19:13:00,39.9,39.4,28.47,SSE,158,5.8,5.8,98,0.00,,SCT,0.00,WeatherDisplay:10.37,2013-01-12 01:13:00,
2013-01-11 19:18:00,39.9,39.4,28.47,SSE,158,6.9,6.9,98,0.00,,SCT,0.00,WeatherDisplay:10.37,2013-01-12 01:18:00,
2013-01-11 19:23:00,39.9,39.4,28.47,SSE,158,7.1,7.1,98,0.00,,SCT,0.00,WeatherDisplay:10.37,2013-01-12 01:23:00,
2013-01-11 19:28:00,39.9,39.4,28.47,SSE,158,5.8,5.8,98,0.00,,SCT,0.00,WeatherDisplay:10.37,2013-01-12 01:28:00,
2013-01-11 19:33:00,40.1,39.6,28.47,South,180,6.9,6.9,98,0.00,,SCT,0.00,WeatherDisplay:10.37,2013-01-12 01:33:00,
2013-01-11 19:38:00,40.5,39.9,28.47,SSW,202,6.9,6.9,98,0.00,,SCT,0.00,WeatherDisplay:10.37,2013-01-12 01:38:00,
2013-01-11 19:43:00,40.6,40.1,28.47,SE,135,7.8,7.8,98,0.00,,SCT,0.00,WeatherDisplay:10.37,2013-01-12 01:43:00,
2013-01-11 19:48:00,41.0,40.5,28.47,SSW,202,10.2,10.2,98,0.00,,SCT,0.00,WeatherDisplay:10.37,2013-01-12 01:48:00,
2013-01-11 19:53:00,41.2,40.7,28.47,SSW,202,9.7,9.7,98,0.00,,SCT,0.00,WeatherDisplay:10.37,2013-01-12 01:53:00,
2013-01-11 19:58:00,41.2,40.7,28.47,SSW,202,8.1,8.1,98,0.00,,SCT,0.00,WeatherDisplay:10.37,2013-01-12 01:58:00,
2013-01-11 20:03:00,41.4,40.8,28.47,SSE,158,13.8,13.8,98,0.00,,SCT,0.00,WeatherDisplay:10.37,2013-01-12 02:03:00,
2013-01-11 20:08:00,41.4,40.8,28.44,SSW,202,9.2,9.2,98,0.00,,SCT,0.00,WeatherDisplay:10.37,2013-01-12 02:08:00,
2013-01-11 20:13:00,41.4,40.8,28.44,SSE,158,3.5,7.4,98,0.00,,SCT,0.00,WeatherDisplay:10.37,2013-01-12 02:13:00,
2013-01-11 20:18:00,41.4,40.8,28.44,SSE,158,12.7,12.7,98,0.00,,SCT,0.00,WeatherDisplay:10.37,2013-01-12 02:18:00,
2013-01-11 20:23:00,41.4,40.8,28.44,SSE,158,5.8,5.8,98,0.00,,SCT,0.00,WeatherDisplay:10.37,2013-01-12 02:23:00,
2013-01-11 20:28:00,41.4,40.8,28.44,SSE,158,11.5,11.5,98,0.00,,SCT,0.00,WeatherDisplay:10.37,2013-01-12 02:28:00,
2013-01-11 20:33:00,41.4,40.8,28.44,SSW,202,8.1,8.1,98,0.00,,SCT,0.00,WeatherDisplay:10.37,2013-01-12 02:33:00,
2013-01-11 20:38:00,41.2,40.7,28.44,SSW,202,4.6,4.6,98,0.00,,SCT,0.00,WeatherDisplay:10.37,2013-01-12 02:38:00,
2013-01-11 20:43:00,41.2,40.7,28.44,SSE,158,4.6,4.6,98,0.00,,SCT,0.00,WeatherDisplay:10.37,2013-01-12 02:43:00,
2013-01-11 20:48:00,41.2,40.7,28.44,SSW,202,4.6,4.6,98,0.00,,SCT,0.00,WeatherDisplay:10.37,2013-01-12 02:48:00,
2013-01-11 20:53:00,41.2,40.7,28.44,SSE,158,6.2,6.2,98,0.00,,SCT,0.00,WeatherDisplay:10.37,2013-01-12 02:53:00,
2013-01-11 20:58:00,41.4,40.8,28.44,South,180,7.1,7.1,98,0.00,,SCT,0.00,WeatherDisplay:10.37,2013-01-12 02:58:00,
2013-01-11 21:03:00,41.4,40.8,28.44,South,180,4.6,4.9,98,0.00,,SCT,0.00,WeatherDisplay:10.37,2013-01-12 03:03:00,
2013-01-11 21:08:00,41.4,40.8,28.41,SSE,158,9.2,9.2,98,0.00,,SCT,0.00,WeatherDisplay:10.37,2013-01-12 03:08:00,
2013-01-11 21:13:00,41.4,40.8,28.41,SSE,158,5.8,5.8,98,0.00,,SCT,0.00,WeatherDisplay:10.37,2013-01-12 03:13:00,
2013-01-11 21:18:00,41.4,40.8,28.41,SSE,158,4.6,4.6,98,0.00,,SCT,0.00,WeatherDisplay:10.37,2013-01-12 03:18:00,
2013-01-11 21:23:00,41.2,40.7,28.44,SSW,202,5.8,5.8,98,0.00,,SCT,0.00,WeatherDisplay:10.37,2013-01-12 03:23:00,
2013-01-11 21:28:00,41.2,40.7,28.44,SW,225,5.8,6.0,98,0.00,,SCT,0.00,WeatherDisplay:10.37,2013-01-12 03:28:00,
2013-01-11 21:33:00,41.0,40.5,28.44,SSW,202,4.6,5.6,98,0.00,,SCT,0.00,WeatherDisplay:10.37,2013-01-12 03:33:00,
2013-01-11 21:38:00,41.0,40.5,28.44,SSW,202,6.9,6.9,98,0.00,,SCT,0.00,WeatherDisplay:10.37,2013-01-12 03:38:00,
2013-01-11 21:43:00,41.0,40.5,28.44,SSW,202,6.2,6.2,98,0.00,,SCT,0.00,WeatherDisplay:10.37,2013-01-12 03:43:00,
2013-01-11 21:48:00,40.8,40.3,28.44,SSE,158,5.8,5.8,98,0.00,,SCT,0.00,WeatherDisplay:10.37,2013-01-12 03:48:00,
2013-01-11 21:53:00,40.8,40.3,28.44,SSW,202,5.9,5.9,98,0.00,,SCT,0.00,WeatherDisplay:10.37,2013-01-12 03:53:00,
2013-01-11 21:58:00,40.6,40.1,28.44,SSE,158,4.6,4.7,98,0.00,,SCT,0.00,WeatherDisplay:10.37,2013-01-12 03:58:00,
2013-01-11 22:03:00,40.6,40.1,28.44,SSW,202,6.2,6.2,98,0.00,,SCT,0.00,WeatherDisplay:10.37,2013-01-12 04:03:00,
2013-01-11 22:08:00,40.5,39.9,28.44,SSE,158,6.9,6.9,98,0.00,,SCT,0.00,WeatherDisplay:10.37,2013-01-12 04:08:00,
2013-01-11 22:13:00,40.5,39.9,28.44,SSE,158,5.8,5.8,98,0.00,,SCT,0.00,WeatherDisplay:10.37,2013-01-12 04:13:00,
2013-01-11 22:18:00,40.3,39.8,28.44,South,180,4.9,4.9,98,0.00,,SCT,0.00,WeatherDisplay:10.37,2013-01-12 04:18:00,
2013-01-11 22:23:00,40.3,39.8,28.44,SSW,202,9.2,9.2,98,0.00,,SCT,0.00,WeatherDisplay:10.37,2013-01-12 04:23:00,
2013-01-11 22:28:00,40.3,39.8,28.44,SSW,202,8.1,8.1,98,0.00,,SCT,0.00,WeatherDisplay:10.37,2013-01-12 04:28:00,
2013-01-11 22:33:00,40.3,39.8,28.44,SSW,202,5.8,6.0,98,0.00,,SCT,0.00,WeatherDisplay:10.37,2013-01-12 04:33:00,
2013-01-11 22:38:00,40.3,39.8,28.44,SW,225,6.0,6.0,98,0.00,,SCT,0.00,WeatherDisplay:10.37,2013-01-12 04:38:00,
2013-01-11 22:43:00,40.1,39.6,28.44,SSW,202,5.9,5.9,98,0.00,,SCT,0.00,WeatherDisplay:10.37,2013-01-12 04:43:00,
2013-01-11 22:48:00,40.3,39.8,28.44,SW,225,5.4,5.4,98,0.00,,SCT,0.00,WeatherDisplay:10.37,2013-01-12 04:48:00,
2013-01-11 22:53:00,40.5,39.9,28.44,SSW,202,6.9,6.9,98,0.00,,SCT,0.00,WeatherDisplay:10.37,2013-01-12 04:53:00,
2013-01-11 22:58:00,40.5,39.9,28.44,SSW,202,5.8,5.8,98,0.00,,SCT,0.00,WeatherDisplay:10.37,2013-01-12 04:58:00,
2013-01-11 23:01:00,40.5,39.9,28.44,SSW,202,10.4,10.4,98,0.00,,SCT,0.00,WeatherDisplay:10.37,2013-01-12 05:01:00,
2013-01-11 23:03:00,40.5,39.9,28.44,WSW,248,5.8,5.8,98,0.00,,SCT,0.00,WeatherDisplay:10.37,2013-01-12 05:03:00,
2013-01-11 23:08:00,40.5,39.9,28.44,WSW,248,5.8,5.8,98,0.00,,SCT,0.00,WeatherDisplay:10.37,2013-01-12 05:08:00,
2013-01-11 23:13:00,40.3,39.8,28.44,SW,225,8.1,8.1,98,0.00,,SCT,0.00,WeatherDisplay:10.37,2013-01-12 05:13:00,
2013-01-11 23:18:00,40.3,39.8,28.44,WSW,248,9.2,9.2,98,0.00,,SCT,0.00,WeatherDisplay:10.37,2013-01-12 05:18:00,
2013-01-11 23:23:00,40.1,39.6,28.44,SW,225,6.9,6.9,98,0.00,,SCT,0.00,WeatherDisplay:10.37,2013-01-12 05:23:00,
2013-01-11 23:28:00,40.1,39.6,28.44,NW,315,8.1,8.1,98,0.00,,SCT,0.00,WeatherDisplay:10.37,2013-01-12 05:28:00,
2013-01-11 23:33:00,39.9,39.4,28.44,SSW,202,5.8,5.8,98,0.00,,SCT,0.00,WeatherDisplay:10.37,2013-01-12 05:33:00,
2013-01-11 23:38:00,39.7,39.2,28.44,SW,225,8.1,8.1,98,0.00,,SCT,0.00,WeatherDisplay:10.37,2013-01-12 05:38:00,
2013-01-11 23:44:00,39.7,39.2,28.44,WSW,248,9.2,9.2,98,0.00,,SCT,0.00,WeatherDisplay:10.37,2013-01-12 05:44:00,
2013-01-11 23:48:00,39.6,39.0,28.44,SSW,202,10.4,10.4,98,0.00,,SCT,0.00,WeatherDisplay:10.37,2013-01-12 05:48:00,
2013-01-11 23:54:00,39.4,38.9,28.44,WSW,248,6.9,6.9,98,0.00,,SCT,0.00,WeatherDisplay:10.37,2013-01-12 05:54:00,
2013-01-11 23:59:00,39.2,38.7,28.44,WSW,248,5.8,5.8,98,0.00,,SCT,0.00,WeatherDisplay:10.37,2013-01-12 05:59:00,